Flag for Ukraine Weather past 2 weeks in Kyiv, Ukraine

Now
66 °F

Passing clouds.


Feels Like: 66 °F
Forecast: 50 / 72 °F
Wind: 6 mph from West

Location: Kyiv

Current Time: Aug 23, 2014 at 1:41:04 PM

Latest Report: Aug 23, 2014 at 1:00 PM


Visibility: N/A

Pressure: 30.12 "Hg

Humidity: 46%

Dew point: 45 °F

Location of KyivLocation

Historic Weather in Kyiv — Graph

°F

Kyiv temperature yesterday

Maximum temperature yesterday: 68 °F (at 12:00 AM)
Minimum temperature yesterday: 52 °F (at 11:30 PM)
Average temperature yesterday: 60 °F

Past Weeks' High & Low Weather Summary

 TemperatureHumidityPressure
High93 °F (Aug 14, 3:00 PM)100% (Aug 9, 9:30 PM)30.12 "Hg (Aug 9, 9:30 PM)
Low46 °F (Aug 23, 5:30 AM)35% (Aug 12, 5:00 PM)29.74 "Hg (Aug 15, 2:00 AM)
Average70 °F69%29.92 "Hg
* Reported Aug 8 12:00 Noon — Aug 23 12:30 PM, Kyiv, Weather by CustomWeather, © 2014

Note: Actual official high and low records may vary slightly from our data, if they occured in-between our weather recording intervals... More about our weather records

Advertising

Kyiv weather history for previous 24 hours

 ConditionsComfort  
Time TempWeatherWind HumidityBarometerVisibility
12:30 PM
Aug 23
68 °FPassing clouds.3 mph46%30.12 "HgN/A
12:00 PM66 °FSunny.3 mph46%30.12 "Hg10 mi
11:30 AM66 °FPassing clouds.3 mph46%30.12 "HgN/A
11:00 AM68 °FPassing clouds.3 mph46%30.12 "HgN/A
10:30 AM66 °FSunny.3 mph49%30.12 "Hg10 mi
10:00 AM66 °FPassing clouds.3 mph52%30.12 "HgN/A
9:30 AM64 °FPassing clouds.3 mph64%30.12 "HgN/A
9:00 AM63 °FSunny.3 mph68%30.12 "Hg10 mi
8:30 AM59 °FSunny.3 mph77%30.12 "Hg10 mi
8:00 AM55 °FSunny.1 mph82%30.12 "Hg10 mi
7:30 AM54 °FSunny.1 mph88%30.12 "Hg10 mi
7:00 AM50 °FSunny.3 mph94%30.12 "Hg4 mi
6:30 AM46 °FFog.3 mph100%30.12 "Hg3 mi
6:00 AM46 °FClear.3 mph100%30.09 "Hg4 mi
5:30 AM46 °FClear.3 mph100%30.09 "Hg4 mi
5:00 AM48 °FFog.3 mph94%30.09 "Hg2 mi
4:52 AM48 °FClear.3 mph94%30.09 "Hg1 mi
4:30 AM48 °FClear.1 mph100%30.09 "Hg6 mi
4:00 AM48 °FFog.1 mph94%30.09 "Hg2 mi
3:30 AM48 °FFog.1 mph94%30.09 "Hg2 mi
3:00 AM50 °FFog.1 mph94%30.09 "Hg1 mi
2:30 AM50 °FClear.3 mph100%30.09 "Hg4 mi
2:00 AM48 °FLight fog.1 mph100%30.09 "Hg1 mi
1:30 AM50 °FFog.1 mph94%30.09 "Hg1 mi
1:00 AM50 °FClear.1 mph94%30.09 "Hg4 mi
12:30 AM50 °FClear.1 mph94%30.09 "Hg4 mi
12:00 AM52 °FClear.1 mph88%30.09 "Hg5 mi
11:30 PM
Aug 22
52 °FClear.1 mph94%30.09 "Hg2 mi
11:00 PM54 °FClear.3 mph88%30.09 "Hg10 mi
10:30 PM54 °FClear.3 mph88%30.09 "Hg5 mi
10:00 PM54 °FClear.3 mph88%30.09 "Hg6 mi
9:30 PM55 °FClear.3 mph82%30.07 "Hg10 mi
9:00 PM55 °FSunny.3 mph82%30.07 "Hg10 mi
8:30 PM57 °FSunny.3 mph72%30.07 "Hg10 mi
8:00 PM63 °FSunny.3 mph56%30.07 "Hg10 mi
7:30 PM63 °FPassing clouds.3 mph56%30.07 "HgN/A
7:00 PM64 °FSunny.8 mph52%30.07 "Hg10 mi
6:30 PM64 °FPassing clouds.8 mph52%30.04 "HgN/A
6:00 PM64 °FPassing clouds.8 mph52%30.04 "HgN/A
5:30 PM64 °FPassing clouds.8 mph52%30.04 "HgN/A
5:00 PM66 °FPartly sunny.8 mph52%30.04 "HgN/A
4:30 PM64 °FPartly sunny.10 mph52%30.04 "HgN/A
4:00 PM66 °FPartly sunny.8 mph52%30.07 "HgN/A
3:30 PM64 °FPartly sunny.10 mph56%30.07 "HgN/A
3:00 PM64 °FPartly sunny.10 mph56%30.07 "HgN/A
2:30 PM64 °FPartly sunny.13 mph56%30.07 "HgN/A
2:00 PM63 °FPartly sunny.10 mph59%30.07 "HgN/A
1:30 PM63 °FPartly sunny.10 mph59%30.07 "HgN/A
1:00 PM61 °FPartly sunny.13 mph63%30.04 "HgN/A
Weather by CustomWeather, © 2014

See weather overviewHow to use our weather pages